Tracking 35237 objects as of 5-Sep-2026
HD Live streaming from Space Station
objects crossing your sky now

STARLINK-30457

Track STARLINK-30457 now!
10-day predictions
STARLINK-30457 is classified as:


NORAD ID: 57900
Int'l Code: 2023-146K
Launch date: September 20, 2023
Source: United States (US)
Launch site: AIR FORCE EASTERN TEST RANGE (AFETR)
Your satellite tracking list
Your tracking list is empty




NASA's NSSDC Master Catalog

Two Line Element Set (TLE):
1 57900U 23146K   26248.44598031  .00000683  00000-0  34337-4 0  9994
2 57900  43.0031  19.3714 0001455 267.1787  92.8898 15.27569214163480
Source of the keplerian elements: AFSPC